Weather History for Bonaire, Bonaire

Change the Weather History Date:

Sunday, November 16, 2014

  Actual Average Record
Temperature  
Mean Temperature 80 °F -  
Max Temperature 86 °F 85 °F 91 °F (2007)
Min Temperature 75 °F 78 °F 73 °F (2005)
Cooling Degree Days 16    
Growing Degree Days 30 (Base 50)    
Moisture  
Dew Point 76 °F    
Average Humidity 84    
Maximum Humidity 94    
Minimum Humidity 74    
Precipitation  
Precipitation 0.00 in - - ()
Sea Level Pressure  
Sea Level Pressure 29.92 in    
Wind  
Wind Speed 10 mph ()    
Max Wind Speed 17 mph    
Max Gust Speed -    
Visibility 6.2 miles    
Events      
Averages and records for this station are not official NWS values.
T = Trace of Precipitation, MM = Missing Value Source: Averaged Metar Reports

Daily Weather History Graph

Daily Weather History Graph

Search for Another Location

Airport:

Trip Planner

Search our weather history database for the weather conditions in past years. The results will help you decide how hot, cold, wet, or windy it might be!

Date:

Astronomy

Nov. 16, 2014 Rise Set
Actual Time 6:30 AM AST 6:04 PM AST
Civil Twilight 6:08 AM AST 6:26 PM AST
Nautical Twilight 5:42 AM AST 6:52 PM AST
Astronomical Twilight 5:17 AM AST 7:18 PM AST
Moon 1:34 AM AST (11/16) 2:01 PM AST (11/16)
Length of Visible Light 12h 18m
Length of Day
11h 33m
Waning Crescent, 31% of the Moon is Illuminated
Nov 16
Waning Crescent
Nov 22
New
Nov 29
First Quarter
Dec 6
Full
Dec 14
Last Quarter

Hourly Weather History & Observations

Time (AST) Temp. Heat Index Dew Point Humidity Pressure Visibility Wind Dir Wind Speed Gust Speed Precip Events Conditions
12:00 AM 80.6 °F 87.1 °F 77.0 °F 89% 29.95 in - East 6.9 mph - N/A   Unknown
1:00 AM 78.8 °F - 75.2 °F 89% 29.92 in - East 5.8 mph - N/A   Unknown
2:00 AM 80.6 °F 87.1 °F 77.0 °F 89% 29.92 in - ENE 10.4 mph - N/A   Unknown
3:00 AM 75.2 °F - 71.6 °F 89% 29.89 in - East 10.4 mph - N/A   Unknown
4:00 AM 77.0 °F - 75.2 °F 94% 29.89 in - ENE 3.5 mph - N/A   Unknown
5:00 AM 78.8 °F - 77.0 °F 94% 29.89 in - East 6.9 mph - N/A   Unknown
6:00 AM 78.8 °F - 77.0 °F 94% 29.92 in 6.2 mi ENE 6.9 mph - N/A   Scattered Clouds
7:00 AM 80.6 °F 87.1 °F 77.0 °F 89% 29.92 in - ENE 10.4 mph - N/A   Unknown
8:00 AM 82.4 °F 92.4 °F 78.8 °F 89% 29.95 in 6.2 mi NE 9.2 mph - N/A   Scattered Clouds
9:00 AM 82.4 °F 92.4 °F 78.8 °F 89% 29.98 in 6.2 mi ENE 15.0 mph - N/A   Scattered Clouds
10:00 AM 84.2 °F 96.1 °F 78.8 °F 84% 29.98 in 6.2 mi East 13.8 mph - N/A   Scattered Clouds
12:00 PM 86.0 °F 96.9 °F 77.0 °F 74% 29.95 in 6.2 mi East 17.3 mph - N/A   Scattered Clouds
12:55 PM 86.0 °F 96.9 °F 77.0 °F 74% 29.95 in - East 16.1 mph - N/A   Unknown
1:00 PM 86.0 °F 96.9 °F 77.0 °F 74% 29.95 in - East 16.1 mph - N/A   Unknown
2:00 PM 84.2 °F 94.1 °F 77.0 °F 79% 29.92 in - ENE 17.3 mph - N/A   Unknown
3:00 PM 84.2 °F 92.3 °F 75.2 °F 74% 29.89 in 6.2 mi ENE 17.3 mph - N/A   Scattered Clouds
4:00 PM 84.2 °F 94.1 °F 77.0 °F 79% 29.86 in 6.2 mi ENE 16.1 mph - N/A   Scattered Clouds
5:00 PM 84.2 °F 92.3 °F 75.2 °F 74% 29.86 in 6.2 mi ENE 17.3 mph - N/A   Scattered Clouds
6:00 PM 82.4 °F 89.5 °F 75.2 °F 79% 29.86 in - ENE 13.8 mph - N/A   Unknown
7:00 PM 80.6 °F 86.2 °F 75.2 °F 84% 29.89 in - East 11.5 mph - N/A   Unknown
8:00 PM 82.4 °F 89.5 °F 75.2 °F 79% 29.92 in - ENE 11.5 mph - N/A   Unknown
9:00 PM 80.6 °F 86.2 °F 75.2 °F 84% 29.92 in 6.2 mi ENE 12.7 mph - N/A   Scattered Clouds
10:00 PM 82.4 °F 89.5 °F 75.2 °F 79% 29.95 in 6.2 mi ENE 12.7 mph - N/A   Scattered Clouds
11:00 PM 80.6 °F 86.2 °F 75.2 °F 84% 29.92 in - ENE 13.8 mph - N/A   Unknown